Location: Vinland
(47.7731°N, 122.6974°W)
Time: 20:02:42
(UTC+00:00)

Vanguard 3 - Visible Passes

Search period start: 21 March 2023 00:00
Search period end: 31 March 2023 00:00
Orbit: 509 x 3249 km, 33.3° (Epoch: 21 March)

Date Brightness Start Highest point End Pass type
(mag) Time Alt. Az. Time Alt. Az. Time Alt. Az.
21 Mar 11.3 09:11:21 12° SE 09:13:06 12° SE 09:18:54 10° ESE visible
21 Mar 10.8 11:15:44 20° S 11:25:59 31° SSE 11:39:22 10° E visible
21 Mar 10.4 13:22:31 10° SW 13:39:59 44° S 13:52:28 10° ESE visible
22 Mar 10.9 10:04:00 21° SSE 10:08:41 23° SE 10:21:06 10° E visible
22 Mar 10.5 12:08:23 17° SW 12:22:21 40° SSE 12:36:15 10° E visible
23 Mar 11.2 08:52:11 14° SE 08:52:11 14° SE 08:59:54 10° ESE visible
23 Mar 10.7 10:56:34 25° S 11:04:40 34° SSE 11:19:09 10° E visible
23 Mar 10.4 13:00:56 10° WSW 13:18:54 47° S 13:32:26 10° ESE visible
24 Mar 10.8 09:44:40 24° SSE 09:47:17 25° SE 10:00:48 10° E visible
24 Mar 10.5 11:49:02 23° SW 12:01:03 43° SSE 12:15:59 10° E visible
25 Mar 11.1 08:32:41 16° SE 08:32:41 16° SE 08:40:00 10° ESE visible
25 Mar 10.5 10:37:03 30° S 10:43:14 36° SSE 10:58:41 10° E visible
25 Mar 10.3 12:41:25 15° WSW 12:57:38 48° S 13:12:13 10° ESE visible
26 Mar 10.7 09:25:01 27° SE 09:25:49 27° SE 09:40:11 10° E visible
26 Mar 10.4 11:29:23 28° SSW 11:39:37 45° SSE 11:55:31 10° E visible
27 Mar 11.1 08:12:56 16° ESE 08:12:56 16° ESE 08:19:35 10° E visible
27 Mar 10.4 10:17:17 35° S 10:21:43 38° SSE 10:37:58 10° E visible
27 Mar 10.3 12:21:39 19° WSW 12:36:14 50° S 12:51:47 10° ESE visible
28 Mar 10.6 09:05:09 29° SE 09:05:09 29° SE 09:19:18 10° E visible
28 Mar 10.3 11:09:30 33° SSW 11:18:04 46° SSE 11:34:50 10° E visible
28 Mar 10.3 13:14:26 10° WSW 13:32:51 49° S 13:47:34 10° ESE visible
29 Mar 11.1 07:52:59 16° ESE 07:52:59 16° ESE 07:58:46 10° E visible
29 Mar 10.3 09:57:20 38° S 10:00:07 40° SSE 10:17:01 10° E visible
29 Mar 10.3 12:01:40 23° WSW 12:14:43 51° S 12:31:09 10° ESE visible
30 Mar 10.6 08:45:07 30° SE 08:45:07 30° SE 08:58:09 10° E visible
30 Mar 10.2 10:49:28 37° SSW 10:56:28 48° SSE 11:13:56 10° E visible
30 Mar 10.3 12:53:48 12° WSW 13:11:21 49° S 13:26:58 10° ESE visible
